Zurück zum Katalog

XINGCHI-1 02A

AktivWissenschaftSSO
NORAD 58496·PAYLOAD·🇨🇳 China

Gestartet Dec 4, 2023 von Jiuquan Satellite Launch Center

Loading…

Nächste Überflüge (nächste 24 Stunden)

TLE

AktuellSource: Space-Track

Epoche: Sep 14, 2026, 15:46 UTC

1 58496U 23187A   26257.65748212  .00001067  00000-0  13303-3 0  9997
2 58496  97.9220 339.9381 0010854 206.5563 153.5096 14.84478546150392

Verfolge XINGCHI-1 02A in Echtzeit mit AllMySat

Download on the App Store